This is the latest recevied weather packets stored in our database for station/object KC9MWQ-13. If no packets are shown the sender has not sent any weather packets the latest 10 day(s).
| Time | Temp. | Humidity | Pressure | Rain* | Wind** | Luminosity | Snow |
|---|---|---|---|---|---|---|---|
| 1777493355 | 15° C | 77% | 1012.7 hPa | 0 mm | - | 118 W/m² | - |
| 1777493051 | 15.56° C | 74% | 1012.6 hPa | 0 mm | - | 153 W/m² | - |
| 1777492748 | 15.56° C | 74% | 1012.5 hPa | 0 mm | - | 303 W/m² | - |
| 1777492443 | 15° C | 74% | 1012.4 hPa | 0 mm | - | 209 W/m² | - |
| 1777492141 | 15° C | 75% | 1012.4 hPa | 0 mm | - | 170 W/m² | - |
| 1777491837 | 15° C | 72% | 1012.6 hPa | 0 mm | - | 140 W/m² | - |
| 1777491534 | 15° C | 71% | 1012.5 hPa | 0 mm | - | 133 W/m² | - |
| 1777491231 | 15° C | 72% | 1012.3 hPa | 0 mm | - | 185 W/m² | - |
| 1777490927 | 15.56° C | 72% | 1012.2 hPa | 0 mm | - | 130 W/m² | - |
| 1777490623 | 16.11° C | 75% | 1012 hPa | 0 mm | - | 170 W/m² | - |
| 1777490319 | 16.11° C | 74% | 1012.3 hPa | 0 mm | - | 372 W/m² | - |
| 1777490017 | 15.56° C | 74% | 1012.1 hPa | 0 mm | - | 311 W/m² | - |
| 1777489715 | 15.56° C | 74% | 1012.3 hPa | 0 mm | - | 295 W/m² | - |
| 1777489411 | 15.56° C | 74% | 1012.2 hPa | 0 mm | - | 278 W/m² | - |
| 1777489108 | 15.56° C | 72% | 1011.9 hPa | 0 mm | - | 290 W/m² | - |
| 1777488805 | 15.56° C | 77% | 1011.9 hPa | 0 mm | - | 297 W/m² | - |
| 1777488503 | 15.56° C | 75% | 1012.1 hPa | 0 mm | - | 345 W/m² | - |
| 1777488201 | 15° C | 77% | 1012 hPa | 0 mm | - | 251 W/m² | - |
| 1777487898 | 15° C | 78% | 1012.1 hPa | 0 mm | - | 139 W/m² | - |
| 1777487596 | 15.56° C | 76% | 1012.1 hPa | 0 mm | - | 112 W/m² | - |
| 1777487293 | 15.56° C | 77% | 1012 hPa | 0 mm | - | 342 W/m² | - |
| 1777486990 | 16.67° C | 74% | 1011.9 hPa | 0 mm | - | 162 W/m² | - |
| 1777486686 | 16.11° C | 80% | 1011.7 hPa | 0 mm | - | 501 W/m² | - |
| 1777486384 | 15° C | 82% | 1012 hPa | 0 mm | - | 232 W/m² | - |
| 1777486081 | 15° C | 83% | 1011.8 hPa | 0 mm | - | 185 W/m² | - |
* Rain latest hour (hover to see other rain measurements)
** Current wind speed in m/s (hover to see current wind gust speed)